DW1231 Weather Reports


Display with metric or nautical units.
time (UTC)temp
F
wind
direction
speed
MPH
gust
MPH
rain 1hr
in
rain 24hr
in
rain mn
in
humidity
%
barometer
mb
20260508113202 59 136 0.0 1.0 0.35 0.43 0.43 94 1018.3
20260508112155 59 107 4.0 5.0 0.32 0.37 0.37 93 1017.8
20260508111223 59 105 4.0 5.0 0.26 0.31 0.31 92 1018.2
20260508110214 59 131 0.0 1.0 0.20 0.26 0.26 91 1018.7
20260508105203 60 120 1.0 2.0 0.18 0.24 0.24 92 1019.1
20260508104155 60 194 4.0 5.0 0.03 0.09 0.09 92 1018.7
20260508103223 60 0.0 0.0 0.03 0.08 0.08 91 1018.2
20260508102154 60 152 5.0 8.0 0.01 0.05 0.05 91 1018.0
20260508101202 60 130 1.0 2.0 0.01 0.05 0.05 92 1017.3
20260508100154 59 136 2.0 5.0 0.01 0.05 0.05 93 1017.2
20260508095242 59 143 1.0 1.0 0.01 0.05 0.05 93 1017.3
20260508094154 59 84 4.0 5.0 0.01 0.05 0.05 92 1017.2
20260508093202 59 0.0 0.0 0.00 0.04 0.04 92 1017.6
20260508092155 59 121 0.0 1.0 0.00 0.04 0.04 92 1017.5
20260508091202 59 97 2.0 2.0 0.01 0.04 0.04 91 1017.7
20260508090155 59 160 4.0 6.0 0.04 0.04 0.04 92 1018.2
20260508085202 59 131 1.0 1.0 0.04 0.04 0.04 91 1018.0
20260508084154 60 125 1.0 1.0 0.04 0.04 0.04 90 1017.7
20260508083213 60 162 2.0 3.0 0.04 0.04 0.04 91 1017.7
20260508082132 60 136 1.0 2.0 0.04 0.04 0.04 90 1018.0
20260508081151 61 131 7.0 9.0 0.02 0.02 0.02 86 1018.3
20260508080107 61 182 3.0 5.0 0.00 0.00 0.00 82 1019.1
20260508075115 60 208 4.0 5.0 0.00 0.00 0.00 83 1019.3
20260508074127 60 0.0 0.0 0.00 0.00 0.00 85 1018.8
20260508073115 60 0.0 0.0 0.00 0.00 0.00 84 1018.8
20260508072106 58 116 3.0 3.0 0.00 0.00 0.00 89 1018.5
20260508071115 58 0.0 0.0 0.00 0.00 0.00 87 1018.8
20260508070106 59 108 2.0 2.0 0.00 0.00 0.00 88 1018.8
20260508065135 59 0.0 0.0 0.00 0.00 0.00 87 1019.4
20260508064107 60 160 2.0 2.0 0.00 0.00 0.00 84 1019.5
20260508063155 59 143 1.0 1.0 0.00 0.00 0.00 85 1019.4
20260508062107 59 0.0 0.0 0.00 0.00 0.00 85 1019.6
20260508061135 60 0.0 0.0 0.00 0.00 0.00 82 1019.2
20260508060107 60 0.0 0.0 0.00 0.00 0.00 81 1019.3
20260508055114 61 102 2.0 2.0 0.00 0.00 0.00 77 1019.0
20260508054107 61 125 1.0 2.0 0.00 0.00 0.00 79 1019.3
20260508053114 59 0.0 0.0 0.00 0.00 0.00 83 1019.6
20260508052107 60 128 0.0 1.0 0.00 0.00 0.00 84 1019.6
20260508051115 61 0.0 0.0 0.00 0.00 0.00 79 1019.6
20260508050107 61 0.0 0.0 0.00 0.00 0.00 80 1019.3
20260508044107 61 0.0 0.0 0.00 0.00 0.00 82 1019.1
20260508043114 61 0.0 0.0 0.00 0.00 0.00 80 1019.2
20260508042127 62 0.0 0.0 0.00 0.00 0.00 79 1019.3
20260508041134 61 0.0 0.0 0.00 0.00 0.00 77 1019.3
20260508040127 61 0.0 0.0 0.00 0.00 0.00 79 1019.3
20260508035115 62 0.0 0.0 0.00 0.00 0.00 77 1019.4
20260508034107 63 0.0 0.0 0.00 0.00 0.00 73 1019.4
20260508033155 63 148 1.0 2.0 0.00 0.00 0.00 73 1019.2
20260508032106 63 0.0 0.0 0.00 0.00 0.00 72 1019.2
20260508031135 64 0.0 0.0 0.00 0.00 0.00 72 1019.1
20260508030107 64 0.0 0.0 0.00 0.00 0.00 71 1019.0
20260508025135 64 142 2.0 2.0 0.00 0.00 0.00 70 1019.1
20260508024107 64 132 1.0 2.0 0.00 0.00 0.00 71 1019.0
20260508023115 64 133 1.0 1.0 0.00 0.00 0.00 70 1018.9
20260508022107 64 138 1.0 1.0 0.00 0.00 0.00 70 1018.7
20260508021115 64 117 3.0 3.0 0.00 0.00 0.00 69 1018.6
20260508020108 65 0.0 0.0 0.00 0.00 0.00 68 1018.7
20260508015115 65 135 1.0 2.0 0.00 0.00 0.00 67 1018.8
20260508014107 66 128 3.0 3.0 0.00 0.00 0.00 66 1018.8
20260508013155 66 130 3.0 3.0 0.00 0.00 0.00 66 1018.6
20260508012107 66 121 1.0 2.0 0.00 0.00 0.00 65 1018.6
20260508011115 67 143 4.0 6.0 0.00 0.00 0.00 64 1018.5
20260508010108 67 146 3.0 5.0 0.00 0.00 0.00 64 1018.6
20260508005115 68 161 3.0 5.0 0.00 0.00 0.00 63 1018.5
20260508004107 68 113 4.0 7.0 0.00 0.00 0.00 63 1018.3
20260508003114 69 195 4.0 5.0 0.00 0.00 0.00 62 1018.3
20260508002107 69 208 4.0 6.0 0.00 0.00 0.00 62 1018.6
20260508001115 70 147 2.0 3.0 0.00 0.00 0.00 61 1018.5
20260508000107 70 157 5.0 8.0 0.00 0.00 0.00 59 1018.5
20260507235115 71 217 4.0 7.0 0.00 0.00 0.00 59 1018.4
20260507234108 71 124 0.0 1.0 0.00 0.00 0.00 57 1018.4
20260507233115 72 120 3.0 3.0 0.00 0.00 0.00 54 1018.5
20260507232107 72 118 4.0 6.0 0.00 0.00 0.00 53 1018.4
20260507231115 72 112 2.0 3.0 0.00 0.00 0.00 53 1018.7
20260507230108 72 121 1.0 1.0 0.00 0.00 0.00 53 1018.5
20260507225115 72 119 2.0 2.0 0.00 0.00 0.00 51 1018.6
20260507224107 72 135 1.0 1.0 0.00 0.00 0.00 51 1018.7
20260507223115 72 104 2.0 2.0 0.00 0.00 0.00 50 1018.7
20260507222107 73 104 3.0 3.0 0.00 0.00 0.00 50 1018.9
20260507221115 74 119 5.0 7.0 0.00 0.00 0.00 49 1018.8
20260507220107 74 122 3.0 5.0 0.00 0.00 0.00 48 1018.7
20260507215116 74 147 2.0 3.0 0.00 0.00 0.00 48 1018.9
20260507214127 75 105 3.0 3.0 0.00 0.00 0.00 48 1018.9
20260507213155 73 80 3.0 5.0 0.00 0.00 0.00 47 1019.0
20260507212128 75 84 3.0 3.0 0.00 0.00 0.00 43 1019.2
20260507211115 76 0.0 0.0 0.00 0.00 0.00 40 1019.1
20260507210107 75 54 2.0 3.0 0.00 0.00 0.00 43 1019.1
20260507205115 74 40 3.0 5.0 0.00 0.00 0.00 42 1019.2
20260507204108 74 49 7.0 8.0 0.00 0.00 0.00 42 1019.2
20260507203115 76 106 2.0 2.0 0.00 0.00 0.00 41 1019.4
20260507202107 75 189 1.0 2.0 0.00 0.00 0.00 43 1019.7
20260507201115 73 87 3.0 5.0 0.00 0.00 0.00 44 1019.7
20260507200107 74 85 3.0 3.0 0.00 0.00 0.00 42 1019.7
20260507195136 75 51 1.0 2.0 0.00 0.00 0.00 44 1019.9
20260507194228 74 328 5.0 6.0 0.00 0.00 0.00 44 1020.0
20260507193157 73 328 5.0 6.0 0.00 0.00 0.00 45 1020.1
20260507192107 72 10 2.0 5.0 0.00 0.00 0.00 46 1020.3
20260507191059 72 29 5.0 9.0 0.00 0.00 0.00 45 1020.5
20260507190033 72 291 6.0 7.0 0.00 0.00 0.00 45 1020.6
20260507185032 71 28 8.0 10.0 0.00 0.00 0.00 45 1020.4
20260507184053 71 168 0.0 2.0 0.00 0.00 0.00 46 1020.7
20260507183033 71 48 7.0 8.0 0.00 0.00 0.00 46 1020.8
20260507182033 71 40 4.0 7.0 0.00 0.00 0.00 49 1020.9
20260507181033 71 331 6.0 7.0 0.00 0.00 0.00 48 1021.3
20260507180033 70 31 2.0 5.0 0.00 0.00 0.00 52 1021.3
20260507175053 69 137 1.0 1.0 0.00 0.00 0.00 54 1021.6
20260507174053 68 255 7.0 8.0 0.00 0.00 0.00 52 1021.8
20260507173033 68 0.0 0.0 0.00 0.00 0.00 54 1022.0
20260507172033 68 75 5.0 6.0 0.00 0.00 0.00 54 1022.3
20260507171012 68 102 5.0 6.0 0.00 0.00 0.00 53 1022.6
20260507165947 68 103 3.0 3.0 0.00 0.00 0.00 53 1023.0
20260507164955 67 207 4.0 5.0 0.00 0.00 0.00 54 1023.0
20260507164008 67 0.0 0.0 0.00 0.00 0.00 55 1023.0
20260507162956 67 280 7.0 8.0 0.00 0.00 0.00 58 1023.0
20260507161948 66 0.0 0.0 0.00 0.00 0.00 59 1022.8
20260507160956 65 55 2.0 3.0 0.00 0.00 0.00 59 1023.1
20260507160008 65 108 2.0 2.0 0.00 0.00 0.00 59 1023.2
20260507154956 65 106 3.0 5.0 0.00 0.00 0.00 60 1023.1
20260507154009 64 7 3.0 5.0 0.00 0.13 0.00 59 1023.3
20260507153016 64 40 5.0 6.0 0.00 0.13 0.00 63 1023.3
20260507151948 62 268 3.0 3.0 0.00 0.13 0.00 65 1023.5
20260507150958 63 54 4.0 5.0 0.00 0.13 0.00 63 1023.7
20260507145948 62 0.0 0.0 0.00 0.13 0.00 68 1023.5
20260507144956 62 94 1.0 2.0 0.00 0.13 0.00 68 1023.5
20260507143948 62 256 3.0 3.0 0.00 0.13 0.00 67 1023.6
20260507142957 61 129 1.0 2.0 0.00 0.13 0.00 69 1023.7
20260507141948 60 170 3.0 5.0 0.00 0.13 0.00 70 1023.8
20260507140957 59 17 3.0 5.0 0.00 0.13 0.00 72 1024.1
20260507135948 59 148 4.0 5.0 0.00 0.13 0.00 73 1024.0
20260507135017 58 355 3.0 5.0 0.00 0.13 0.00 74 1024.1
20260507133948 58 168 2.0 2.0 0.00 0.13 0.00 80 1024.0
20260507132956 56 106 1.0 2.0 0.00 0.13 0.00 81 1024.1
20260507131948 55 118 2.0 2.0 0.00 0.13 0.00 84 1024.0
20260507131036 55 207 3.0 5.0 0.00 0.13 0.00 84 1024.2
20260507125948 55 146 1.0 2.0 0.00 0.13 0.00 84 1024.0
20260507124956 55 178 2.0 2.0 0.00 0.13 0.00 85 1023.8
20260507123948 53 156 2.0 3.0 0.00 0.13 0.00 88 1023.8
20260507122957 53 141 1.0 1.0 0.00 0.13 0.00 90 1023.8
20260507121949 52 133 1.0 1.0 0.00 0.13 0.00 92 1023.6
20260507120956 51 131 1.0 1.0 0.00 0.13 0.00 92 1023.4
20260507115949 51 137 1.0 1.0 0.00 0.13 0.00 92 1023.5
20260507114956 51 145 1.0 2.0 0.00 0.13 0.00 93 1023.1
20260507113948 51 172 3.0 3.0 0.00 0.13 0.00 93 1023.1